Location: *
(28.3744°N, 81.5492°W)
Time: 03:23:47
(UTC+00:00)

Cosmos 1400 Rocket - Pass Details

Date: 15 June 2025
Orbit: 484 x 518 km, 81.1° (Epoch: 11 July)

Event Time Altitude Azimuth Distance (km) Brightness Sun altitude
Rises 09:43:59 0° 341° (NNW) 2,632 6.5 -9.3°
Reaches altitude 10° 09:46:14 10° 332° (NNW) 1,746 5.4 -8.9°
Maximum altitude 09:49:44 34° 267° (W) 865 3.4 -8.3°
Drops below altitude 10° 09:53:13 10° 201° (SSW) 1,742 4.9 -7.6°
Sets 09:55:29 0° 192° (SSW) 2,625 5.9 -7.2°
